Campbell Airport

Jump to: basic info | weather | frequencies | runways | comments

Related pages: nearby airports | nearby navaids | notams | map

Basic information (top)

Codes: KC81 C81
Location: lon 42.324600, lat -88.074097, elev 788 ft / 240 m msl
Status: small_airport
Scheduled airline service: no
Links: Wikipedia Mobile

Weather (top)

Current conditions for Waukegan Regional Airport 11nm (20km) ENE (rec'd 2014/11/23 09:55Z):

KUGN 230955Z AUTO 19013KT 4SM BR OVC008 09/08 A2975 RMK AO2 CIG 006V011 SLP075 T00940083

Airport forecast for Kenosha Regional Airport 18nm (32km) NNE (rec'd 2014/11/23 06:21Z):

TAF KENW 230520Z 2306/2406 21009KT 6SM BR SCT018 OVC035 
     FM230800 20009KT 5SM BR OVC020 
     FM231100 19009KT 5SM -DZ BR OVC010 
     FM231800 18012G20KT 2SM -RA BR OVC008 
     FM232000 17012KT 3/4SM RA BR OVC003 
     FM240200 13007KT 1SM RA BR OVC003

Frequencies (top)

Verify before use: may be inaccurate or out of date.

A/D: 120.55 MHz (CHICAGO APP/DEP)
UNIC: 122.7 MHz (CTAF/UNICOM)

Runways (top)

06/24: 3,573 x 40 ft (1,089 x 12 m) — other (COP) — not lighted — threshold 24 displaced 301 ft (92 m)

09/27: 3,270 x 40 ft (997 x 12 m) — paved — lighted

Latest comments (top)

My aviation birthplace.: I did my Private Pilot training here. [read]

More... (top)

See also NOTAMs and nearby airports and navaids, or visit the Campbell Airport page at the main OurAirports website..